This is the latest recevied weather packets stored in our database for station/object DJ5CM-10. If no packets are shown the sender has not sent any weather packets the latest 10 day(s).
| Time | Temp. | Humidity | Pressure | Rain* | Wind** | Luminosity | Snow |
|---|---|---|---|---|---|---|---|
| 1777532873 | 8.89° C | 70% | 1031.9 hPa | - | - | - | - |
| 1777531972 | 7.78° C | 69% | 1032 hPa | - | - | - | - |
| 1777531072 | 7.22° C | 69% | 1031.9 hPa | - | - | - | - |
| 1777530172 | 6.67° C | 67% | 1031.9 hPa | - | - | - | - |
| 1777529302 | 6.11° C | 66% | 1031.9 hPa | - | - | - | - |
| 1777528402 | 5.56° C | 65% | 1031.9 hPa | - | - | - | - |
| 1777527502 | 5° C | 64% | 1031.8 hPa | - | - | - | - |
| 1777526602 | 5° C | 63% | 1031.8 hPa | - | - | - | - |
| 1777525702 | 4.44° C | 62% | 1031.7 hPa | - | - | - | - |
| 1777524802 | 4.44° C | 61% | 1031.6 hPa | - | - | - | - |
| 1777523902 | 4.44° C | 60% | 1031.6 hPa | - | - | - | - |
| 1777523002 | 4.44° C | 59% | 1031.7 hPa | - | - | - | - |
| 1777522102 | 4.44° C | 59% | 1031.6 hPa | - | - | - | - |
| 1777521201 | 4.44° C | 59% | 1031.5 hPa | - | - | - | - |
| 1777520301 | 5° C | 58% | 1031.4 hPa | - | - | - | - |
| 1777519401 | 5° C | 58% | 1031.3 hPa | - | - | - | - |
| 1777518501 | 5° C | 57% | 1031.2 hPa | - | - | - | - |
| 1777517601 | 5° C | 57% | 1031.2 hPa | - | - | - | - |
| 1777516701 | 5.56° C | 56% | 1031.2 hPa | - | - | - | - |
| 1777515801 | 5.56° C | 56% | 1031.2 hPa | - | - | - | - |
| 1777514901 | 5.56° C | 55% | 1031.2 hPa | - | - | - | - |
| 1777514001 | 5.56° C | 54% | 1031.2 hPa | - | - | - | - |
| 1777513101 | 6.11° C | 54% | 1031 hPa | - | - | - | - |
| 1777512200 | 6.11° C | 53% | 1031 hPa | - | - | - | - |
| 1777511300 | 6.11° C | 53% | 1031 hPa | - | - | - | - |
* Rain since midnight (hover to see other rain measurements)
** Current wind speed in m/s (hover to see current wind gust speed)